Weather in Bogdanovsky

Russia / Arkhangel'skaya Oblast'     61°19′16″N   43°42′28″E
temp.,
°C
wind,
m/s
gust,
m/s
humid.,
%
clouds,
%
prec.,
mm/h
press.,
hPa
HPBL,
m
13 april, tue
tue1300:00+7s3139473 0.0 1032387
03:00+6s41495100 0.0 1031437
06:00+6s41390100 0.1 1029501
09:00+6s41194100 0.1 1027534
12:00+8s41190100 0.0 1025568
15:00+12ssw41081100 0.0 1024757
18:00+11ssw3886100 0.0 1023328
21:00+9s31095100 0.0 1023213
14 april, wed
wed1400:00+8s31195100 0.0 1022323
03:00+7ssw3996100 0.0 1021205
06:00+7s3109488 0.2 1021229
09:00+12ssw411695 0.2 1019435
12:00+16ssw5135676 0.0 10181088
15:00+17sw6145556 0.0 10171666
18:00+15sw5126397 0.0 1016908
21:00+11sw41279100 0.1 1017458
15 april, thu
thu1500:00+7n3792100 1.3 1019446
03:00+5n2786100 3.1 1021556
06:00+4n2685100 0.0 1022609
09:00+6n356993 0.0 10241030
12:00+6n4454100 0.0 10251238
15:00+6n4547100 0.0 10261282
18:00+5nne365271 0.0 1027519
21:00
16 april, fri
fri1600:000nne27810 0.0 1028140
03:00−1nne23785 0.0 102973
06:000nne137316 0.0 1029103
09:00+4n12475 0.0 1029672
12:00+7nnw22375 0.0 10291272
15:00+8nnw34354 0.0 10291646
18:00+7nnw244924 0.0 1028135
21:00+3n310741 0.0 1031457
17 april, sat
sat1700:000nnw25945 0.0 1031121
03:00−1nnw24965 0.0 1032101
06:000nnw268893 0.0 1033233
09:00+4nnw356598 0.0 10321140
12:00+5nnw3658100 0.0 10311494
15:00+5nnw4866100 0.1 10311351
18:00+4nnw398597 0.1 1031937
21:00+1nw269013 0.3 1031161